Wind_Speed
12 10 9 9 8 7 7 9 13 16 18 21 22 22 22 20 18 17 17 17 17 15 13 9 6 7 7 11 13 17 17 17 18 18 17 16 15 13 12 11 9 8 7 6
12 11 11 10 9 7 7 9 13 17 20 22 24 24 21 18 15 14 14 15 15 14 12 10 6 4 4 8 12 15 17 18 19 18 17 16 15 14 13 12 10 9 9 7
11 12 13 12 10 8 6 10 14 18 20 21 22 20 19 18 15 12 12 14 14 13 11 9 5 3 4 8 12 14 14 16 18 18 17 17 15 14 14 13 12 11 10 9
12 15 15 14 12 9 7 10 15 18 20 20 20 20 17 16 11 9 10 11 12 13 11 9 5 3 3 6 10 14 15 16 17 17 18 17 15 14 14 14 13 12 11 10
11 15 16 15 12 10 9 11 15 18 19 20 20 20 17 14 8 6 8 10 11 11 11 10 7 3 1 4 8 12 13 16 17 17 16 16 15 15 15 14 13 13 12 11
13 15 15 14 13 11 10 12 15 18 19 20 19 20 17 14 6 5 7 9 11 10 10 10 7 5 2 3 6 9 12 15 17 17 16 16 16 16 15 15 14 14 13 12
15 15 15 14 13 10 11 13 16 17 18 19 19 19 16 12 6 6 7 9 10 10 9 9 7 5 3 2 5 9 12 14 16 17 16 17 16 16 16 15 14 14 13 13
15 14 15 16 13 10 10 13 16 18 19 20 20 18 14 11 8 7 8 8 9 9 7 8 6 4 4 3 4 7 11 13 14 15 16 16 16 16 15 15 15 15 14 14
15 14 16 17 15 13 12 13 16 18 19 20 19 17 14 11 9 8 8 6 6 8 6 5 6 5 4 3 4 7 10 12 13 15 15 15 15 15 15 15 15 15 15 15
16 16 17 18 18 16 15 15 17 18 20 21 19 17 14 13 11 9 7 6 5 6 6 3 3 3 2 2 2 6 8 10 11 13 14 14 14 15 15 15 16 16 16 16
21 20 18 20 21 19 18 18 17 19 21 21 20 18 15 13 11 10 6 6 6 6 5 4 3 2 2 0 1 4 7 9 10 11 13 14 15 15 16 16 16 17 17 18
27 26 23 22 23 23 22 21 20 21 21 21 21 19 15 14 13 10 7 7 7 6 5 4 3 2 2 1 2 3 5 7 8 10 12 13 14 15 16 17 18 18 19 20
31 30 29 27 26 25 25 24 23 23 22 22 21 19 16 15 13 10 9 8 6 6 5 5 4 4 3 3 4 4 5 7 8 9 11 13 14 15 17 18 19 20 20 21
35 34 34 32 29 28 28 26 25 24 24 23 21 19 17 16 15 12 11 9 7 6 6 6 5 6 5 6 7 7 8 9 10 11 12 14 15 16 17 19 19 21 22 23
39 39 38 37 35 33 31 29 27 26 24 24 22 20 17 17 15 13 12 11 10 9 8 7 7 7 8 8 8 9 10 11 12 12 14 16 17 18 19 20 21 22 23 24
42 42 42 40 38 38 36 33 30 28 25 25 24 22 19 18 16 15 14 13 12 10 9 8 8 8 8 9 10 11 11 13 14 14 15 16 17 17 18 20 22 23 24 25
44 44 44 43 41 40 39 35 32 29 27 26 25 22 20 20 19 16 15 14 12 11 10 10 11 11 11 12 13 14 14 15 16 17 17 17 18 19 20 22 22 23 24 25
45 47 47 46 44 45 40 37 34 33 31 29 27 25 24 22 20 17 16 15 15 14 13 13 12 13 13 14 15 15 16 17 18 18 19 20 21 22 24 24 24 25 26 27
41 44 47 48 49 47 43 39 36 34 32 30 28 28 26 24 22 19 18 17 16 15 15 14 14 15 15 16 16 17 17 19 20 21 23 23 24 25 25 25 26 28 29 31
36 41 44 47 48 47 42 40 37 35 35 31 29 29 28 27 23 21 20 19 17 16 16 15 15 16 17 17 18 19 20 21 22 24 25 26 27 27 28 28 29 30 33 34
33 37 41 45 46 46 43 42 39 38 35 32 31 31 30 28 25 22 21 20 18 17 16 15 16 17 18 19 20 21 22 23 25 26 27 27 29 30 31 32 32 33 34 35
29 33 36 39 43 44 41 39 38 36 34 33 31 31 29 27 26 24 21 20 19 18 17 17 18 19 19 20 21 23 24 25 27 28 29 30 31 32 33 34 35 35 36 36
24 27 30 33 36 37 36 37 36 33 32 30 29 27 25 25 24 24 22 20 18 18 18 18 19 20 21 22 23 25 26 28 30 31 31 33 34 34 35 35 35 36 37 38
18 21 23 25 25 29 30 31 31 29 26 25 26 24 23 24 22 21 20 19 19 19 20 20 21 21 23 24 25 26 28 29 31 32 33 34 35 36 36 36 36 37 37 39
11 13 17 19 21 22 25 24 23 23 23 23 22 22 23 21 19 18 17 17 17 18 19 20 21 22 24 25 26 28 29 31 32 33 34 34 35 36 37 38 38 39 39 40
8 9 12 15 15 16 16 15 15 17 19 19 17 18 18 17 17 17 17 18 18 19 20 21 23 24 25 27 28 29 30 31 32 33 34 35 36 37 38 39 39 40 41 42
Wind_Direction
261 256 254 255 261 280 308 329 331 328 326 323 324 325 325 324 329 336 340 340 339 340 335 330 303 278 249 219 207 197 197 195 197 200 205 208 211 216 214 214 217 217 211 206
252 246 241 243 254 278 307 320 322 319 318 319 321 324 324 317 321 329 340 348 349 349 347 343 319 295 217 204 199 194 191 194 196 200 203 203 207 209 209 210 212 207 204 201
244 238 242 241 252 268 298 308 310 309 310 313 315 320 319 314 319 324 343 353 355 357 354 351 343 302 216 198 199 195 191 194 194 197 197 199 202 203 204 207 206 204 202 199
239 243 246 244 247 258 286 296 301 306 310 313 313 318 319 317 321 336 351 358 3 6 6 1 350 315 230 208 199 195 191 191 190 189 192 196 201 202 202 203 205 205 202 199
239 243 246 246 244 249 272 288 294 300 307 313 318 322 324 318 317 338 357 6 11 12 11 8 7 10 199 192 188 188 193 194 192 190 194 198 201 202 203 203 206 204 202 200
237 243 249 251 247 246 266 278 286 295 304 312 320 328 333 325 316 338 358 10 14 15 12 9 15 35 69 183 188 191 195 193 191 193 197 199 202 205 205 203 205 205 204 204
236 240 246 247 245 248 258 273 285 292 302 312 323 332 338 341 343 350 2 13 15 14 15 15 14 24 42 133 177 186 189 188 190 195 200 201 204 206 204 204 206 207 207 209
237 236 238 239 242 250 261 274 283 294 305 312 321 333 340 343 352 359 0 9 15 15 17 20 20 29 41 86 143 167 176 181 187 195 200 202 205 206 205 207 210 212 214 217
244 231 232 235 239 246 259 272 280 285 296 304 313 323 329 341 344 353 2 14 21 19 16 22 31 37 45 80 135 160 172 184 192 196 198 200 203 205 208 213 215 219 223 226
255 242 232 240 244 246 257 268 275 282 290 296 305 311 319 331 337 343 2 13 12 17 18 11 15 18 30 76 143 175 182 182 190 197 200 203 208 211 214 219 223 227 231 236
252 252 235 237 241 247 254 264 272 282 286 289 295 304 312 327 328 337 356 8 359 354 2 9 4 354 353 349 190 192 200 198 200 203 206 211 216 218 222 225 229 233 237 241
247 251 248 242 243 247 254 262 269 277 280 285 290 297 302 312 317 330 341 347 348 342 336 339 332 309 286 265 237 212 205 209 214 216 219 223 226 230 233 236 239 241 244 246
242 244 249 246 244 245 251 259 267 275 277 280 283 289 294 301 310 316 326 332 331 327 320 315 306 296 275 255 246 230 229 230 229 230 233 235 237 238 240 243 246 248 250 251
241 242 246 248 248 249 251 256 263 270 275 274 276 281 285 291 300 305 311 315 312 311 302 291 289 286 274 259 253 244 242 244 242 244 244 243 244 245 247 250 251 252 253 253
241 243 246 248 248 249 251 253 260 266 269 268 269 272 279 289 292 297 301 305 305 300 290 282 276 278 273 267 262 255 252 250 252 253 251 254 250 251 252 254 255 255 255 256
242 245 246 248 249 251 251 254 257 260 261 262 264 268 274 281 285 288 293 299 297 292 285 279 274 275 275 268 270 265 264 263 261 260 262 264 256 261 262 259 261 258 258 258
242 246 248 248 249 251 252 254 255 255 257 259 262 267 270 275 280 284 288 291 287 290 289 286 281 279 279 272 273 272 272 272 273 270 270 272 270 273 271 268 267 262 263 266
241 243 246 247 247 248 251 253 254 252 254 257 260 262 267 273 273 279 282 282 281 280 285 284 281 279 278 275 276 277 276 276 278 278 279 279 275 275 274 272 270 271 271 272
242 242 244 245 246 248 249 250 250 250 252 253 256 261 265 267 265 271 274 277 276 275 279 280 277 275 276 277 280 279 279 280 281 282 284 282 282 280 281 282 279 275 274 276
243 242 243 244 245 247 247 246 247 248 250 252 257 261 262 261 264 271 269 269 272 270 272 274 275 276 276 278 280 282 283 283 283 285 286 284 284 283 284 283 283 282 280 280
242 243 243 244 245 245 246 244 244 247 250 252 255 259 260 257 261 263 264 264 266 268 269 270 272 272 273 275 277 279 282 284 286 289 288 287 287 286 285 285 285 284 284 283
244 245 245 246 244 244 245 245 244 248 247 247 250 253 252 256 258 255 258 259 260 264 267 269 270 271 272 273 275 278 281 284 286 288 288 288 288 287 286 286 286 286 284 283
252 249 247 246 246 245 245 247 246 245 243 244 249 255 254 254 252 255 258 256 259 263 265 267 269 272 274 274 276 279 282 284 286 287 288 288 289 288 287 287 288 286 284 283
250 247 246 243 241 241 243 244 242 241 243 248 248 250 250 249 252 253 250 257 259 261 264 266 270 273 275 277 278 280 282 284 285 286 287 289 289 288 288 288 288 287 286 284
248 247 246 245 247 247 245 245 245 244 249 250 247 251 255 252 248 247 252 257 259 263 265 270 273 275 277 279 280 282 283 284 285 287 288 288 288 289 288 288 288 287 287 286
246 244 240 238 236 237 237 238 239 240 241 242 246 249 249 247 248 254 258 261 265 268 270 272 274 276 278 280 282 284 285 286 287 289 290 290 290 290 289 288 288 287 287 287
Height
5889 5890 5889 5889 5888 5887 5885 5884 5883 5882 5880 5877 5875 5873 5870 5867 5864 5860 5855 5851 5847 5842 5839 5837 5836 5837 5837 5838 5839 5843 5847 5851 5855 5859 5863 5866 5868 5871 5873 5874 5876 5877 5878 5879
5887 5887 5886 5885 5885 5884 5883 5882 5882 5880 5878 5875 5872 5870 5868 5865 5862 5859 5855 5850 5846 5842 5838 5836 5835 5834 5835 5837 5838 5841 5844 5848 5853 5857 5860 5863 5866 5868 5871 5873 5874 5875 5877 5878
5882 5883 5882 5881 5881 5881 5881 5880 5880 5878 5876 5873 5871 5869 5866 5863 5859 5857 5853 5849 5846 5841 5838 5836 5834 5833 5834 5835 5837 5840 5843 5846 5850 5854 5858 5861 5864 5866 5869 5871 5872 5874 5875 5877
5878 5879 5878 5878 5878 5878 5878 5878 5877 5876 5874 5871 5869 5866 5864 5860 5857 5854 5851 5847 5845 5841 5839 5837 5835 5834 5833 5834 5836 5838 5841 5844 5848 5852 5856 5859 5862 5864 5867 5869 5871 5872 5874 5875
5875 5875 5875 5874 5875 5874 5874 5875 5874 5873 5871 5869 5867 5864 5861 5858 5855 5853 5850 5846 5843 5841 5839 5837 5835 5834 5833 5834 5835 5837 5840 5843 5846 5850 5854 5857 5860 5863 5865 5867 5869 5871 5873 5874
5871 5871 5871 5871 5871 5871 5871 5871 5871 5870 5868 5867 5864 5862 5860 5856 5854 5851 5848 5845 5842 5840 5838 5837 5835 5835 5834 5834 5835 5836 5839 5841 5845 5849 5852 5856 5858 5861 5863 5865 5867 5869 5871 5872
5866 5867 5867 5868 5868 5869 5869 5869 5868 5867 5865 5864 5862 5859 5858 5854 5852 5850 5847 5844 5842 5839 5838 5837 5836 5836 5835 5834 5835 5836 5838 5841 5844 5848 5851 5854 5857 5859 5861 5863 5865 5867 5869 5871
5861 5864 5864 5864 5865 5865 5865 5866 5865 5864 5862 5860 5859 5857 5857 5854 5851 5849 5846 5844 5842 5840 5839 5838 5837 5836 5836 5835 5835 5836 5838 5841 5844 5847 5850 5853 5855 5857 5859 5862 5863 5865 5867 5869
5857 5859 5860 5860 5861 5861 5861 5862 5861 5860 5859 5857 5856 5855 5854 5852 5850 5848 5846 5843 5842 5841 5839 5839 5838 5838 5837 5837 5836 5837 5839 5841 5843 5846 5849 5851 5853 5855 5858 5860 5861 5863 5865 5866
5852 5854 5856 5856 5857 5857 5858 5858 5858 5857 5856 5854 5854 5852 5852 5850 5849 5847 5845 5843 5842 5841 5840 5839 5839 5839 5839 5838 5838 5838 5839 5841 5843 5845 5848 5850 5852 5854 5855 5857 5859 5861 5862 5863
5845 5847 5850 5851 5852 5853 5854 5854 5853 5853 5852 5851 5850 5851 5849 5848 5847 5846 5844 5843 5842 5841 5840 5839 5839 5839 5839 5838 5838 5839 5839 5841 5842 5844 5846 5848 5850 5851 5853 5855 5856 5857 5858 5859
5838 5839 5842 5845 5847 5848 5848 5849 5849 5849 5849 5848 5847 5849 5846 5846 5845 5844 5843 5842 5841 5840 5840 5839 5839 5839 5838 5838 5838 5838 5839 5840 5842 5843 5845 5846 5848 5849 5850 5851 5852 5853 5854 5855
5832 5833 5835 5838 5842 5843 5843 5844 5845 5845 5844 5844 5843 5846 5843 5842 5842 5842 5841 5840 5840 5839 5839 5839 5838 5838 5838 5838 5838 5838 5839 5840 5841 5842 5843 5844 5845 5846 5847 5848 5849 5849 5850 5850
5825 5827 5829 5831 5833 5836 5837 5839 5839 5840 5839 5839 5839 5840 5840 5839 5839 5839 5839 5838 5837 5837 5837 5837 5837 5836 5836 5837 5837 5837 5837 5838 5838 5839 5840 5841 5842 5842 5843 5843 5844 5844 5844 5845
5818 5820 5821 5823 5826 5828 5830 5833 5834 5834 5834 5834 5835 5835 5835 5835 5835 5835 5835 5835 5835 5834 5834 5834 5834 5834 5835 5835 5835 5835 5835 5835 5835 5836 5836 5836 5836 5837 5837 5838 5838 5838 5838 5838
5810 5811 5813 5816 5818 5820 5823 5826 5827 5828 5829 5829 5830 5831 5831 5831 5831 5832 5831 5831 5831 5831 5831 5831 5831 5831 5831 5832 5832 5831 5831 5831 5831 5831 5831 5831 5830 5831 5831 5831 5831 5831 5831 5830
5802 5803 5805 5807 5810 5812 5815 5819 5820 5822 5823 5824 5825 5827 5826 5826 5826 5827 5827 5826 5827 5827 5827 5826 5826 5827 5827 5827 5827 5827 5827 5827 5826 5826 5826 5825 5824 5825 5825 5824 5824 5823 5823 5823
5792 5794 5795 5798 5802 5803 5810 5811 5812 5814 5816 5817 5819 5820 5821 5821 5821 5821 5821 5821 5822 5822 5822 5821 5821 5822 5822 5822 5822 5822 5822 5822 5821 5821 5820 5819 5819 5818 5817 5817 5817 5816 5816 5815
5782 5784 5786 5788 5790 5793 5799 5802 5804 5806 5808 5811 5812 5814 5814 5815 5815 5815 5816 5816 5816 5816 5817 5817 5817 5817 5817 5817 5817 5816 5816 5816 5815 5815 5814 5813 5812 5811 5810 5809 5808 5807 5807 5806
5773 5774 5777 5778 5780 5784 5791 5794 5796 5800 5801 5804 5806 5807 5808 5809 5809 5811 5810 5810 5810 5811 5811 5811 5812 5812 5811 5811 5811 5811 5810 5810 5809 5808 5807 5806 5805 5803 5803 5802 5800 5799 5798 5796
5764 5765 5766 5768 5770 5773 5780 5784 5788 5791 5794 5797 5799 5800 5801 5801 5803 5804 5804 5804 5805 5805 5805 5806 5806 5806 5806 5806 5805 5805 5804 5803 5802 5801 5799 5798 5797 5795 5794 5792 5791 5789 5788 5786
5755 5756 5758 5759 5762 5767 5770 5775 5779 5782 5785 5788 5790 5791 5792 5793 5794 5796 5797 5798 5799 5799 5800 5800 5801 5801 5800 5800 5799 5798 5797 5796 5795 5793 5791 5790 5788 5787 5785 5783 5781 5779 5777 5775
5747 5749 5750 5752 5756 5759 5763 5767 5770 5773 5777 5779 5781 5783 5784 5785 5786 5788 5790 5792 5793 5793 5794 5794 5794 5794 5793 5793 5792 5791 5790 5788 5786 5784 5783 5781 5779 5777 5775 5773 5771 5768 5766 5765
5741 5742 5744 5745 5748 5751 5755 5758 5762 5765 5768 5770 5773 5776 5777 5778 5779 5780 5783 5785 5786 5787 5787 5787 5787 5787 5786 5785 5784 5783 5781 5780 5778 5775 5773 5771 5769 5767 5765 5762 5760 5758 5756 5753
5737 5738 5739 5741 5743 5745 5748 5751 5754 5758 5761 5764 5766 5769 5771 5772 5773 5775 5776 5778 5779 5780 5780 5781 5780 5780 5779 5777 5776 5774 5773 5771 5769 5766 5764 5761 5759 5756 5754 5751 5749 5746 5744 5741
5734 5735 5736 5738 5740 5742 5744 5747 5749 5752 5754 5756 5759 5762 5764 5765 5767 5769 5770 5772 5773 5773 5773 5773 5772 5772 5770 5769 5767 5765 5763 5761 5758 5756 5753 5751 5748 5746 5743 5740 5737 5734 5731 5727